Main page
METAR-TAF:

METAR-TAF

Airports :

RAF Spadeadam

Spadeadam, England

latitude: 55-03N, longitude: 002-33W, elevation: 325 m

Current weather observation

The report was made 45 minutes ago, at 03:50 UTC
Wind 12 kt from the Southwest
Temperature 12°C
Humidity 100%
Pressure 1005 hPa
Visibility: 7000 m
mist

METAR: EGOM 160350Z AUTO 23012KT 7000 BR BKN001/// 12/12 Q1005 RERA

Time: 05:35 (04:35 UTC)


TAF: missing

Weather observations and forecasts of more than 4000 airports (METAR and TAF reports).

The available stations are represented by yellow and red dots on the map.

Hover mouse over dot to see the name of the station.

Then click to see weather observations and forecasts.

To change the map : click on the green buttons with a black cross to zoom in, on the green button with a dash to zoom out, or on the green arrows for adjacent maps.


METAR-TAF: